Retour au catalogue

STARLINK-32446

ActifCommunicationsVLEO
NORAD 61262·PAYLOAD·🇺🇸 United States

Lancé Sep 25, 2024 depuis Vandenberg Space Force Base

Loading…

Prochains Passages (prochaines 24 heures)

TLE

FraisSource: CelesTrak SupGP

Époque: Sep 14, 2026, 22:17 UTC

1 61262C 24175V   26257.92895833  .00019488  00000+0  57597-3 0  2577
2 61262  53.1600  31.4804 0001239  80.9017  48.7711 15.34370038    17

Suivez STARLINK-32446 en temps réel avec AllMySat

Download on the App Store